Simultaneous Nadir Overpasses (SNOs) Predictions

Prediction of SNOs between AQUA and NPP Satellite Orbit:

Table of predicted SNOs for the next 14.0 days since TLE Epoch: 3/27/2021
Index Date (AQUA) Time (AQUA) Lat,Lon (AQUA) SZA (AQUA ) Date (NPP) Time (NPP) Lat,Lon (NPP) SZA (NPP ) Distance(km) Time Diff (sec)
1 03/27/2021 06:21:40 75.86, -36.83 95.00 03/27/2021 06:21:05 75.87, -36.75 95.00 2.44 35
2 03/27/2021 07:10:53 -76.54, 132.98 85.82 03/27/2021 07:11:36 -76.54, 132.90 85.83 2.28 43
3 03/29/2021 22:38:02 76.15, 79.94 93.60 03/29/2021 22:37:52 76.16, 80.00 93.59 1.94 10
4 03/29/2021 23:27:15 -76.83,-110.15 87.21 03/29/2021 23:28:23 -76.82,-110.24 87.25 2.69 68
5 04/01/2021 14:05:19 -75.46, 26.11 86.66 04/01/2021 14:04:17 -75.47, 26.20 86.62 2.63 62
6 04/01/2021 14:54:24 76.48,-163.12 92.16 04/01/2021 14:54:39 76.49,-163.05 92.13 2.16 15
7 04/04/2021 06:21:48 -75.44, 141.95 87.68 04/04/2021 06:21:12 -75.43, 141.86 87.63 2.65 36
8 04/04/2021 07:10:53 76.46, -47.31 91.14 04/04/2021 07:11:34 76.45, -47.41 91.13 2.90 41
9 04/06/2021 22:38:07 -75.91,-100.80 89.25 04/06/2021 22:37:56 -75.91,-100.85 89.23 1.41 11
10 04/06/2021 23:27:13 76.86, 69.97 89.64 04/06/2021 23:28:19 76.86, 69.93 89.59 1.26 66
11 04/09/2021 14:05:21 75.21,-154.57 90.55 04/09/2021 14:04:18 75.21,-154.56 90.61 0.21 63



Historial Predications of SNOs between AQUA and NPP
